Overview Statistics Trail Chart Weather Telemetry Raw packets
 

This is the latest recevied weather packets stored in our database for station/object W6MAF. If no packets are shown the sender has not sent any weather packets the latest 10 day(s).

<< 88 89 90 91 92 93 94 >>
Time Temp. Humidity Pressure Rain* Wind** Luminosity Snow
1788026644 30° C 12% - 0 mm 4.47 m/s, 231° - -
1788026049 30° C 12% - 0 mm 5.81 m/s, 195° - -
1788025751 30° C 12% - 0 mm 5.36 m/s, 201° - -
1788025450 30° C 12% - 0 mm 5.81 m/s, 217° - -
1788025153 30° C 12% - 0 mm 5.81 m/s, 228° - -
1788024855 30° C 12% - 0 mm 5.81 m/s, 214° - -
1788024557 30° C 12% - 0 mm 7.15 m/s, 212° - -
1788024259 30° C 12% - 0 mm 4.47 m/s, 200° - -
1788023962 30° C 12% - 0 mm 6.71 m/s, 188° - -
1788023661 30° C 13% - 0 mm 6.71 m/s, 236° - -
1788023363 29.44° C 13% - 0 mm 7.15 m/s, 215° - -
1788023065 29.44° C 13% - 0 mm 5.36 m/s, 221° - -
1788022768 29.44° C 14% - 0 mm 6.26 m/s, 236° - -
1788022470 28.89° C 14% - 0 mm 6.26 m/s, 259° - -
1788022172 28.89° C 14% - 0 mm 6.71 m/s, 246° - -
1788021871 28.89° C 14% - 0 mm 4.92 m/s, 242° - -
1788021573 28.89° C 14% - 0 mm 6.71 m/s, 240° - -
1788021276 28.33° C 14% - 0 mm 6.71 m/s, 245° - -
1788020978 28.33° C 15% - 0 mm 5.36 m/s, 212° - -
1788020680 27.78° C 15% - 0 mm 3.58 m/s, 232° - -
1788020383 27.78° C 17% - 0 mm 4.92 m/s, 219° - -
1788020082 27.22° C 18% - 0 mm 6.71 m/s, 224° - -
1788019784 27.22° C 18% - 0 mm 7.15 m/s, 194° - -
1788019486 27.22° C 18% - 0 mm 5.36 m/s, 198° - -
1788019189 26.67° C 19% - 0 mm 7.15 m/s, 222° - -

* Rain latest hour (hover to see other rain measurements)
** Current wind speed in m/s (hover to see current wind gust speed)